Coordenadas geográficas y zona horaria actual de 12227 ciudades de Sudáfrica.
Para reducir el número de resultados, selecciona provincia o usa el buscador:
Se muestran 6301 a 6350 de un total de 12227 ciudades:
| Ciudad | Latitud | Longitud | Zona horaria | Provincia |
|---|---|---|---|---|
| Many Waters | 25°53′40″S | 29°22′58″E | UT+02:00:00 | Mpumalanga |
| Manyaka | 24°28′39″S | 30°07′11″E | UT+02:00:00 | Limpopo |
| Manyana | 32°36′00″S | 28°26′00″E | UT+02:00:00 | Cabo Oriental |
| Manyanga | 25°03′23″S | 29°37′57″E | UT+02:00:00 | Limpopo |
| Manyapje | 23°54′22″S | 29°11′56″E | UT+02:00:00 | Limpopo |
| Manyeding | 27°27′45″S | 23°41′10″E | UT+02:00:00 | Noroeste |
| Manyeding | 27°29′48″S | 23°41′02″E | UT+02:00:00 | Noroeste |
| Manyeleti | 24°40′35″S | 31°26′46″E | UT+02:00:00 | Limpopo |
| Manyiseni | 26°54′46″S | 32°01′49″E | UT+02:00:00 | KwaZulu-Natal |
| Manyosini | 31°56′27″S | 28°39′44″E | UT+02:00:00 | Cabo Oriental |
| Manzana | 31°44′13″S | 28°01′13″E | UT+02:00:00 | Cabo Oriental |
| Manzana | 32°28′02″S | 28°10′11″E | UT+02:00:00 | Cabo Oriental |
| Manzi | 31°57′34″S | 28°53′43″E | UT+02:00:00 | Cabo Oriental |
| Manzibomvu | 27°35′00″S | 32°30′00″E | UT+02:00:00 | KwaZulu-Natal |
| Manzibomvu | 27°37′13″S | 32°32′40″E | UT+02:00:00 | KwaZulu-Natal |
| Manzikahyi | 32°05′15″S | 28°39′23″E | UT+02:00:00 | Cabo Oriental |
| Manzimahle | 31°37′38″S | 27°33′10″E | UT+02:00:00 | Cabo Oriental |
| Manzimahle | 31°36′45″S | 27°34′39″E | UT+02:00:00 | Cabo Oriental |
| Manzimdaka | 31°32′43″S | 27°40′55″E | UT+02:00:00 | Cabo Oriental |
| Manzotweni | 31°54′22″S | 28°36′17″E | UT+02:00:00 | Cabo Oriental |
| Manzotweni | 31°50′00″S | 28°34′00″E | UT+02:00:00 | Cabo Oriental |
| Maokantsi | 27°04′45″S | 23°49′22″E | UT+02:00:00 | Noroeste |
| Maotsi | 24°27′26″S | 30°03′19″E | UT+02:00:00 | Limpopo |
| Mapani | 22°53′49″S | 29°56′57″E | UT+02:00:00 | Limpopo |
| Mapaputle | 24°59′00″S | 26°50′00″E | UT+02:00:00 | Noroeste |
| Mapaputle | 25°00′02″S | 26°49′44″E | UT+02:00:00 | Noroeste |
| Mapareng | 24°32′00″S | 30°17′00″E | UT+02:00:00 | Limpopo |
| Mapela | 23°57′00″S | 28°50′00″E | UT+02:00:00 | Limpopo |
| Mapella | 25°36′23″S | 27°56′45″E | UT+02:00:00 | Noroeste |
| Mapfontein | 30°13′00″S | 28°39′00″E | UT+02:00:00 | Cabo Oriental |
| Maphakatlaling | 30°37′04″S | 28°35′51″E | UT+02:00:00 | Cabo Oriental |
| Maphelana | 28°24′23″S | 32°25′26″E | UT+02:00:00 | KwaZulu-Natal |
| Maphephane | 25°13′38″S | 25°48′03″E | UT+02:00:00 | Noroeste |
| Maphiniki | 27°02′53″S | 23°15′25″E | UT+02:00:00 | Noroeste |
| Maphoitsile | 27°35′38″S | 24°47′50″E | UT+02:00:00 | Noroeste |
| Maphopha | 24°52′02″S | 29°54′48″E | UT+02:00:00 | Limpopo |
| Maphophoma | 28°02′16″S | 31°40′39″E | UT+02:00:00 | KwaZulu-Natal |
| Maphungu | 28°27′50″S | 30°44′30″E | UT+02:00:00 | KwaZulu-Natal |
| Mapitiki | 26°06′54″S | 23°27′34″E | UT+02:00:00 | Noroeste |
| Mapitiki | 26°11′43″S | 23°27′23″E | UT+02:00:00 | Noroeste |
| Maplotini | 31°21′02″S | 28°22′09″E | UT+02:00:00 | Cabo Oriental |
| Mapoch | 25°28′00″S | 27°59′00″E | UT+02:00:00 | Noroeste |
| Mapoch | 25°05′51″S | 29°00′07″E | UT+02:00:00 | Mpumalanga |
| Mapoer | 25°19′00″S | 29°39′00″E | UT+02:00:00 | Mpumalanga |
| Mapoki | 30°17′04″S | 28°51′38″E | UT+02:00:00 | Cabo Oriental |
| Mapolesene | 30°23′00″S | 28°24′00″E | UT+02:00:00 | Cabo Oriental |
| Mapoteng | 27°23′11″S | 23°30′39″E | UT+02:00:00 | Noroeste |
| Mapumulo | 29°09′32″S | 31°04′01″E | UT+02:00:00 | KwaZulu-Natal |
| Maputsane | 27°07′22″S | 23°49′13″E | UT+02:00:00 | Noroeste |
| Maputsane | 27°06′48″S | 23°50′30″E | UT+02:00:00 | Noroeste |